M I D A S
Marine Information and Data Acquisition System
Tripno 1893 of the Zeeleeuw from 2010-06-03 06:12:09 to 2010-06-03 17:18:40
Back to CruiseResearch ActivitiesStationsMapUnderway DataData graphs

EquipmentUnitsComments
TimeDGPSUTC
LatitudeDGPSDM.mWGS84
LongitudeDGPSDM.mWGS84
SpeedMeteo Stationm/sRelative wind speed
DirectionMeteo StationdegRelative wind direction
TemperatureMeteo Stationdeg CelciusAir temperature
PressureMeteo StationPaAtmospheric pressure
HumidityMeteo Station%Relative humidity
Missing or incorrect values are displayed as -999
Metereological data collected by the RV Zeeleeuw from 2010-06-03 06:13:10 to 2010-06-03 17:25:54
                                                                                    Next 1000 lines
Time Latitude Longitude Speed Direction Temperature Pressure Humidity
2010-06-03 06:13:20 51°13.661 2°55.955 1.3 280 14.2 102250 39
2010-06-03 06:13:25 51°13.662 2°55.952 1.5 319 14.2 102250 37
2010-06-03 06:13:30 51°13.663 2°55.947 1.6 280 14.2 102250 37
2010-06-03 06:13:35 51°13.665 2°55.942 1.4 21 14.2 102250 36
2010-06-03 06:13:41 51°13.667 2°55.933 1.2 279 14.2 102250 36
2010-06-03 06:13:47 51°13.67 2°55.924 0.2 257 14.2 102250 36
2010-06-03 06:13:52 51°13.672 2°55.917 1.2 286 14.2 102250 36
2010-06-03 06:13:58 51°13.674 2°55.911 0.9 15 14.2 102250 38
2010-06-03 06:14:04 51°13.676 2°55.907 1.6 278 14.2 102250 38
2010-06-03 06:14:09 51°13.677 2°55.903 0.9 26 14.2 102250 38
2010-06-03 06:14:14 51°13.678 2°55.899 0.3 276 14.2 102250 38
2010-06-03 06:14:19 51°13.68 2°55.895 0.9 24 14.2 102250 38
2010-06-03 06:14:23 51°13.681 2°55.891 1.2 281 14.2 102250 38
2010-06-03 06:14:28 51°13.683 2°55.886 1.7 254 14.2 102250 38
2010-06-03 06:14:33 51°13.685 2°55.879 1.4 287 14.2 102250 38
2010-06-03 06:14:38 51°13.688 2°55.873 0.5 31 14.3 102250 41
2010-06-03 06:14:44 51°13.691 2°55.863 1.6 283 14.3 102250 41
2010-06-03 06:14:48 51°13.693 2°55.857 2.1 269 14.3 102250 36
2010-06-03 06:14:54 51°13.696 2°55.848 1.9 282 14.3 102250 36
2010-06-03 06:14:59 51°13.698 2°55.84 2.7 253 14.3 102240 36
2010-06-03 06:15:04 51°13.701 2°55.831 2.1 277 14.3 102240 36
2010-06-03 06:15:08 51°13.702 2°55.825 1.3 262 14.3 102250 35
2010-06-03 06:15:14 51°13.705 2°55.815 2 279 14.3 102250 35
2010-06-03 06:15:19 51°13.707 2°55.806 1.5 248 14.3 102250 37
2010-06-03 06:15:24 51°13.709 2°55.799 1 283 14.3 102250 37
2010-06-03 06:15:28 51°13.71 2°55.792 0.2 23 14.3 102250 36
2010-06-03 06:15:34 51°13.712 2°55.783 1.9 279 14.3 102250 36
2010-06-03 06:15:39 51°13.713 2°55.775 0.8 21 14.3 102250 38
2010-06-03 06:15:44 51°13.715 2°55.768 1.1 280 14.3 102250 38
2010-06-03 06:15:48 51°13.716 2°55.762 0.2 25 14.3 102240 37
2010-06-03 06:15:54 51°13.717 2°55.753 0.1 282 14.3 102240 37
2010-06-03 06:15:59 51°13.718 2°55.746 1.7 317 14.3 102250 36
2010-06-03 06:16:03 51°13.719 2°55.741 1.6 280 14.3 102250 36
2010-06-03 06:16:08 51°13.72 2°55.736 2.1 317 14.3 102250 38
2010-06-03 06:16:13 51°13.72 2°55.733 2.6 279 14.3 102250 38
2010-06-03 06:16:18 51°13.721 2°55.731 2.2 322 14.3 102250 40
2010-06-03 06:16:23 51°13.721 2°55.73 2 283 14.3 102250 40
2010-06-03 06:16:28 51°13.722 2°55.729 2.8 334 14.4 102250 39
2010-06-03 06:16:32 51°13.722 2°55.729 2.7 278 14.4 102250 39
2010-06-03 06:16:37 51°13.723 2°55.729 3.1 351 14.3 102250 37
2010-06-03 06:16:42 51°13.724 2°55.729 2.2 284 14.3 102250 37
2010-06-03 06:16:47 51°13.724 2°55.731 3.1 348 14.3 102240 40
2010-06-03 06:16:52 51°13.725 2°55.731 2.7 278 14.3 102240 40
2010-06-03 06:16:56 51°13.726 2°55.732 1.9 353 14.3 102240 36
2010-06-03 06:17:01 51°13.726 2°55.731 1.4 354 14.3 102240 36
2010-06-03 06:17:06 51°13.725 2°55.729 0.3 13 14.3 102240 40
2010-06-03 06:17:11 51°13.724 2°55.727 0.3 13 14.3 102240 40
2010-06-03 06:17:16 51°13.722 2°55.724 2.6 23 14.3 102240 37
2010-06-03 06:17:21 51°13.72 2°55.722 2.3 7 14.3 102240 37
2010-06-03 06:17:26 51°13.719 2°55.719 3.1 4 14.3 102240 36
2010-06-03 06:17:32 51°13.717 2°55.716 3.4 5 14.3 102240 36
2010-06-03 06:17:38 51°13.715 2°55.714 2.6 7 14.3 102240 37
2010-06-03 06:17:43 51°13.715 2°55.713 2.7 3 14.3 102240 37
2010-06-03 06:17:48 51°13.716 2°55.713 2.2 7 14.3 102240 37
2010-06-03 06:17:54 51°13.718 2°55.714 2.3 8 14.3 102240 37
2010-06-03 06:17:59 51°13.721 2°55.714 1.7 4 14.2 102240 40
2010-06-03 06:18:03 51°13.723 2°55.714 1.2 14 14.2 102240 40
2010-06-03 06:18:08 51°13.726 2°55.713 1.3 14 14.2 102240 39
2010-06-03 06:18:13 51°13.73 2°55.711 1.5 357 14.2 102240 39
2010-06-03 06:18:19 51°13.735 2°55.708 1 353 14.2 102240 36
2010-06-03 06:18:24 51°13.739 2°55.706 0.2 5 14.2 102240 36
2010-06-03 06:18:28 51°13.742 2°55.703 2 353 14.2 102240 40
2010-06-03 06:18:33 51°13.747 2°55.699 2 351 14.2 102240 40
2010-06-03 06:18:38 51°13.752 2°55.695 1.8 3 14.2 102240 38
2010-06-03 06:18:43 51°13.758 2°55.691 2.2 358 14.2 102240 38
2010-06-03 06:18:48 51°13.764 2°55.686 2.8 354 14.2 102240 40
2010-06-03 06:18:52 51°13.769 2°55.683 2 3 14.2 102240 40
2010-06-03 06:18:57 51°13.775 2°55.677 3.1 2 14.2 102240 40
2010-06-03 06:19:02 51°13.782 2°55.672 3.2 357 14.2 102240 40
2010-06-03 06:19:07 51°13.789 2°55.667 2.9 354 14.2 102240 39
2010-06-03 06:19:12 51°13.796 2°55.661 2.4 354 14.2 102240 39
2010-06-03 06:19:16 51°13.802 2°55.656 3.3 358 14.2 102230 36
2010-06-03 06:19:21 51°13.809 2°55.65 3.3 347 14.2 102230 36
2010-06-03 06:19:26 51°13.817 2°55.645 3.1 354 14.2 102240 36
2010-06-03 06:19:31 51°13.825 2°55.639 3.9 356 14.2 102240 36
2010-06-03 06:19:36 51°13.833 2°55.633 3.1 359 14.2 102240 37
2010-06-03 06:19:41 51°13.84 2°55.627 3.8 3 14.2 102240 37
2010-06-03 06:19:46 51°13.849 2°55.62 3.8 -999 14.1 102240 40
2010-06-03 06:19:51 51°13.857 2°55.614 3.7 8 14.1 102240 40
2010-06-03 06:19:56 51°13.866 2°55.607 2.5 2 14.1 102240 37
2010-06-03 06:20:00 51°13.873 2°55.602 1.5 360 14.1 102240 37
2010-06-03 06:20:05 51°13.882 2°55.596 1.5 351 14.1 102240 36
2010-06-03 06:20:10 51°13.891 2°55.59 2.9 352 14.1 102240 36
2010-06-03 06:20:15 51°13.901 2°55.583 3.9 356 14.1 102240 40
2010-06-03 06:20:20 51°13.911 2°55.577 3.3 351 14.1 102240 40
2010-06-03 06:20:25 51°13.92 2°55.569 2.5 351 14 102240 37
2010-06-03 06:20:30 51°13.929 2°55.561 3.4 348 14 102240 37
2010-06-03 06:20:35 51°13.939 2°55.554 3.4 353 14 102240 40
2010-06-03 06:20:40 51°13.948 2°55.547 2.9 355 14 102240 40
2010-06-03 06:20:45 51°13.958 2°55.54 3.9 355 14 102240 36
2010-06-03 06:20:50 51°13.967 2°55.533 4.1 352 14 102240 36
2010-06-03 06:20:55 51°13.977 2°55.526 4 348 14 102240 39
2010-06-03 06:21:00 51°13.986 2°55.519 3.4 357 14 102240 39
2010-06-03 06:21:05 51°13.996 2°55.512 3.7 358 14 102240 40
2010-06-03 06:21:10 51°14.005 2°55.506 4.9 354 14 102240 40
2010-06-03 06:21:15 51°14.015 2°55.498 3.9 359 14 102240 39
2010-06-03 06:21:20 51°14.024 2°55.492 3.5 1 14 102240 39
2010-06-03 06:21:25 51°14.034 2°55.485 3.4 350 14 102240 40
2010-06-03 06:21:30 51°14.043 2°55.478 4.7 278 14 102240 40
2010-06-03 06:21:35 51°14.053 2°55.472 4 347 14 102240 37
2010-06-03 06:21:40 51°14.062 2°55.464 3.8 279 14 102240 37
2010-06-03 06:21:45 51°14.072 2°55.457 3.7 347 14 102240 36
2010-06-03 06:21:50 51°14.081 2°55.449 4.6 283 14 102240 36
2010-06-03 06:21:55 51°14.091 2°55.442 4 348 14 102240 36
2010-06-03 06:22:00 51°14.1 2°55.435 4.3 280 14 102240 36
2010-06-03 06:22:05 51°14.11 2°55.427 4 348 14 102240 38
2010-06-03 06:22:10 51°14.119 2°55.42 3.5 349 14 102240 38
2010-06-03 06:22:15 51°14.129 2°55.412 3.5 349 13.9 102240 40
2010-06-03 06:22:20 51°14.138 2°55.404 3.6 350 13.9 102240 40
2010-06-03 06:22:25 51°14.148 2°55.396 3.6 352 13.9 102240 38
2010-06-03 06:22:30 51°14.157 2°55.387 3.8 283 13.9 102240 38
2010-06-03 06:22:35 51°14.166 2°55.379 4.4 352 13.9 102240 36
2010-06-03 06:22:40 51°14.176 2°55.37 4.4 352 13.9 102240 36
2010-06-03 06:22:45 51°14.185 2°55.361 4.4 354 13.9 102240 40
2010-06-03 06:22:50 51°14.195 2°55.351 4.7 354 13.9 102240 40
2010-06-03 06:22:55 51°14.204 2°55.342 4.6 357 13.9 102240 40
2010-06-03 06:23:00 51°14.213 2°55.332 4.4 356 13.9 102240 40
2010-06-03 06:23:05 51°14.223 2°55.323 4.7 355 13.9 102240 39
2010-06-03 06:23:10 51°14.232 2°55.313 5.4 358 13.9 102240 39
2010-06-03 06:23:15 51°14.242 2°55.304 4.3 355 13.9 102240 40
2010-06-03 06:23:20 51°14.251 2°55.294 4.9 -999 13.9 102240 40
2010-06-03 06:23:25 51°14.261 2°55.285 5 359 13.9 102240 37
2010-06-03 06:23:30 51°14.271 2°55.275 4.5 356 13.9 102240 37
2010-06-03 06:23:35 51°14.282 2°55.266 4.7 355 13.9 102240 39
2010-06-03 06:23:40 51°14.292 2°55.256 5.3 353 13.9 102240 39
2010-06-03 06:23:45 51°14.302 2°55.246 5.5 354 13.9 102240 40
2010-06-03 06:23:50 51°14.313 2°55.235 5.8 356 13.9 102240 40
2010-06-03 06:23:55 51°14.324 2°55.225 5.4 355 13.9 102240 36
2010-06-03 06:24:00 51°14.335 2°55.215 5.6 356 13.9 102240 36
2010-06-03 06:24:05 51°14.346 2°55.204 5.3 355 13.9 102240 40
2010-06-03 06:24:10 51°14.357 2°55.194 5.4 351 13.9 102240 40
2010-06-03 06:24:15 51°14.368 2°55.183 5.6 352 13.9 102230 40
2010-06-03 06:24:20 51°14.379 2°55.173 5.7 351 13.9 102230 40
2010-06-03 06:24:25 51°14.39 2°55.162 5.4 354 13.9 102230 36
2010-06-03 06:24:30 51°14.401 2°55.151 5.3 352 13.9 102230 36
2010-06-03 06:24:35 51°14.412 2°55.14 5.2 350 13.9 102240 40
2010-06-03 06:24:40 51°14.424 2°55.129 5.7 352 13.9 102240 40
2010-06-03 06:24:45 51°14.435 2°55.118 5.4 351 13.9 102240 37
2010-06-03 06:24:50 51°14.446 2°55.107 5.3 279 13.9 102240 37
2010-06-03 06:24:55 51°14.457 2°55.096 5.7 352 13.9 102240 40
2010-06-03 06:25:00 51°14.469 2°55.084 5.7 353 13.9 102240 40
2010-06-03 06:25:05 51°14.481 2°55.073 5.6 352 13.9 102240 40
2010-06-03 06:25:10 51°14.492 2°55.061 5.4 352 13.9 102240 40
2010-06-03 06:25:15 51°14.504 2°55.049 5.4 350 13.8 102240 37
2010-06-03 06:25:20 51°14.516 2°55.037 5.9 350 13.8 102240 37
2010-06-03 06:25:25 51°14.528 2°55.025 6.2 353 13.8 102240 37
2010-06-03 06:25:30 51°14.54 2°55.014 6.4 352 13.8 102240 37
2010-06-03 06:25:35 51°14.553 2°55.002 6.4 352 13.8 102240 37
2010-06-03 06:25:40 51°14.565 2°54.99 6.3 352 13.8 102240 37
2010-06-03 06:25:45 51°14.578 2°54.978 6.7 352 13.8 102240 38
2010-06-03 06:25:50 51°14.591 2°54.966 6.2 352 13.8 102240 38
2010-06-03 06:25:55 51°14.604 2°54.954 6.1 352 13.8 102240 40
2010-06-03 06:26:00 51°14.617 2°54.941 6.5 351 13.8 102240 40
2010-06-03 06:26:05 51°14.63 2°54.929 6.2 353 13.7 102240 37
2010-06-03 06:26:10 51°14.643 2°54.916 6.1 352 13.7 102240 37
2010-06-03 06:26:15 51°14.657 2°54.903 6.6 352 13.7 102230 39
2010-06-03 06:26:20 51°14.67 2°54.891 6.8 354 13.7 102230 39
2010-06-03 06:26:25 51°14.684 2°54.877 6.7 350 13.7 102230 40
2010-06-03 06:26:30 51°14.698 2°54.864 6.5 347 13.7 102230 40
2010-06-03 06:26:35 51°14.712 2°54.851 6.7 349 13.7 102240 38
2010-06-03 06:26:40 51°14.727 2°54.838 7.4 348 13.7 102240 38
2010-06-03 06:26:45 51°14.741 2°54.824 7.1 348 13.7 102240 40
2010-06-03 06:26:50 51°14.757 2°54.811 7.4 348 13.7 102240 40
2010-06-03 06:26:55 51°14.772 2°54.797 7.3 347 13.7 102240 40
2010-06-03 06:27:00 51°14.788 2°54.783 7.6 348 13.7 102240 40
2010-06-03 06:27:05 51°14.804 2°54.768 7.2 347 13.8 102230 37
2010-06-03 06:27:10 51°14.819 2°54.754 7.5 278 13.8 102230 37
2010-06-03 06:27:15 51°14.835 2°54.739 7.8 349 13.7 102230 40
2010-06-03 06:27:20 51°14.851 2°54.723 7.5 280 13.7 102230 40
2010-06-03 06:27:25 51°14.867 2°54.708 8 349 13.7 102230 38
2010-06-03 06:27:30 51°14.882 2°54.691 7.5 278 13.7 102230 38
2010-06-03 06:27:35 51°14.898 2°54.676 7.4 351 13.7 102240 38
2010-06-03 06:27:40 51°14.913 2°54.659 7.7 349 13.7 102240 38
2010-06-03 06:27:45 51°14.928 2°54.641 8.2 351 13.7 102240 39
2010-06-03 06:27:50 51°14.943 2°54.624 6.9 350 13.7 102240 39
2010-06-03 06:27:55 51°14.958 2°54.606 8.5 353 13.7 102230 39
2010-06-03 06:28:00 51°14.973 2°54.589 7.2 350 13.7 102230 39
2010-06-03 06:28:05 51°14.987 2°54.569 7.6 353 13.7 102230 39
2010-06-03 06:28:10 51°15.001 2°54.552 8.2 352 13.7 102230 39
2010-06-03 06:28:15 51°15.015 2°54.533 7.7 354 13.6 102240 40
2010-06-03 06:28:20 51°15.03 2°54.515 7.4 352 13.6 102240 40
2010-06-03 06:28:25 51°15.044 2°54.495 7.1 351 13.6 102240 38
2010-06-03 06:28:30 51°15.058 2°54.477 7.3 352 13.6 102240 38
2010-06-03 06:28:35 51°15.072 2°54.458 7.3 352 13.6 102240 38
2010-06-03 06:28:40 51°15.086 2°54.439 7.4 352 13.6 102240 38
2010-06-03 06:28:45 51°15.101 2°54.42 7.5 351 13.6 102230 38
2010-06-03 06:28:50 51°15.115 2°54.401 7 353 13.6 102230 38
2010-06-03 06:28:55 51°15.129 2°54.383 7.9 351 13.5 102240 38
2010-06-03 06:29:00 51°15.143 2°54.363 7.3 353 13.5 102240 38
2010-06-03 06:29:05 51°15.157 2°54.345 7.2 351 13.5 102240 38
2010-06-03 06:29:10 51°15.171 2°54.326 7 352 13.5 102240 38
2010-06-03 06:29:15 51°15.186 2°54.307 7.4 353 13.5 102240 38
2010-06-03 06:29:20 51°15.199 2°54.287 6.9 351 13.5 102240 38
2010-06-03 06:29:25 51°15.214 2°54.268 8.3 351 13.5 102240 40
2010-06-03 06:29:30 51°15.228 2°54.248 7.6 351 13.5 102240 40
2010-06-03 06:29:35 51°15.242 2°54.229 8 351 13.5 102240 38
2010-06-03 06:29:40 51°15.256 2°54.21 7.2 277 13.5 102240 38
2010-06-03 06:29:45 51°15.27 2°54.191 7.7 351 13.5 102240 38
2010-06-03 06:29:50 51°15.285 2°54.172 7.3 351 13.5 102240 38
2010-06-03 06:29:55 51°15.299 2°54.153 8.5 352 13.4 102240 40
2010-06-03 06:30:00 51°15.313 2°54.134 7.1 352 13.4 102240 40
2010-06-03 06:30:05 51°15.327 2°54.115 7.6 351 13.4 102240 40
2010-06-03 06:30:10 51°15.342 2°54.096 8.3 353 13.4 102240 40
2010-06-03 06:30:15 51°15.356 2°54.077 8.3 354 13.4 102240 40
2010-06-03 06:30:20 51°15.371 2°54.058 7.7 355 13.4 102240 40
2010-06-03 06:30:25 51°15.385 2°54.039 8 351 13.4 102240 39
2010-06-03 06:30:30 51°15.399 2°54.02 7.6 352 13.4 102240 39
2010-06-03 06:30:35 51°15.414 2°54.002 7.3 349 13.4 102240 39
2010-06-03 06:30:40 51°15.429 2°53.983 7.9 352 13.4 102240 39
2010-06-03 06:30:45 51°15.444 2°53.965 7.3 349 13.4 102240 40
2010-06-03 06:30:50 51°15.458 2°53.947 8.3 352 13.4 102240 40
2010-06-03 06:30:55 51°15.473 2°53.929 7.9 352 13.4 102240 39
2010-06-03 06:31:00 51°15.488 2°53.911 7.5 352 13.4 102240 39
2010-06-03 06:31:05 51°15.503 2°53.894 7.5 353 13.4 102240 41
2010-06-03 06:31:10 51°15.518 2°53.876 9.6 354 13.4 102240 41
2010-06-03 06:31:15 51°15.533 2°53.858 8.2 352 13.4 102240 38
2010-06-03 06:31:20 51°15.548 2°53.841 7.9 352 13.4 102240 38
2010-06-03 06:31:25 51°15.563 2°53.823 8.2 352 13.3 102240 38
2010-06-03 06:31:30 51°15.578 2°53.806 8.2 353 13.3 102240 38
2010-06-03 06:31:35 51°15.594 2°53.789 7.2 353 13.3 102240 39
2010-06-03 06:31:40 51°15.609 2°53.772 7.8 353 13.3 102240 39
2010-06-03 06:31:45 51°15.624 2°53.755 8.2 353 13.3 102240 38
2010-06-03 06:31:50 51°15.639 2°53.738 7.4 350 13.3 102240 38
2010-06-03 06:31:55 51°15.654 2°53.72 7.8 353 13.3 102240 41
2010-06-03 06:32:00 51°15.669 2°53.703 7.8 277 13.3 102240 41
2010-06-03 06:32:05 51°15.685 2°53.686 8.5 349 13.3 102240 39
2010-06-03 06:32:10 51°15.7 2°53.668 8.1 352 13.3 102240 39
2010-06-03 06:32:15 51°15.715 2°53.651 8.2 348 13.3 102240 38
2010-06-03 06:32:20 51°15.73 2°53.634 8.2 350 13.3 102240 38
2010-06-03 06:32:25 51°15.746 2°53.617 8 349 13.3 102240 37
2010-06-03 06:32:30 51°15.761 2°53.601 8.3 351 13.3 102240 37
2010-06-03 06:32:35 51°15.777 2°53.584 8.8 351 13.3 102230 40
2010-06-03 06:32:40 51°15.793 2°53.569 8.3 352 13.3 102230 40
2010-06-03 06:32:45 51°15.808 2°53.553 8.1 351 13.3 102240 38
2010-06-03 06:32:50 51°15.824 2°53.538 8.7 278 13.3 102240 38
2010-06-03 06:32:55 51°15.84 2°53.522 8.7 349 13.3 102240 40
2010-06-03 06:33:00 51°15.856 2°53.507 7.9 351 13.3 102240 40
2010-06-03 06:33:05 51°15.872 2°53.492 7.9 351 13.3 102240 38
2010-06-03 06:33:10 51°15.888 2°53.477 9.4 351 13.3 102240 38
2010-06-03 06:33:15 51°15.905 2°53.463 8.3 351 13.3 102230 39
2010-06-03 06:33:20 51°15.921 2°53.449 8.4 352 13.3 102230 39
2010-06-03 06:33:25 51°15.938 2°53.435 8.4 350 13.3 102240 38
2010-06-03 06:33:30 51°15.955 2°53.421 10.4 353 13.3 102240 38
2010-06-03 06:33:35 51°15.971 2°53.408 8.8 351 13.3 102230 38
2010-06-03 06:33:40 51°15.988 2°53.395 8.3 352 13.3 102230 38
2010-06-03 06:33:45 51°16.005 2°53.382 8.7 352 13.2 102230 40
2010-06-03 06:33:50 51°16.022 2°53.369 8.3 353 13.2 102230 40
2010-06-03 06:33:55 51°16.038 2°53.356 9.3 352 13.2 102230 38
2010-06-03 06:34:00 51°16.055 2°53.342 8 351 13.2 102230 38
2010-06-03 06:34:05 51°16.071 2°53.329 8 351 13.2 102230 40
2010-06-03 06:34:10 51°16.088 2°53.316 8.8 351 13.2 102230 40
2010-06-03 06:34:15 51°16.105 2°53.303 8.4 351 13.2 102240 39
2010-06-03 06:34:20 51°16.121 2°53.289 8.7 351 13.2 102240 39
2010-06-03 06:34:25 51°16.138 2°53.276 7.8 353 13.3 102230 41
2010-06-03 06:34:30 51°16.155 2°53.263 8.6 351 13.3 102230 41
2010-06-03 06:34:35 51°16.171 2°53.25 9.4 352 13.3 102230 39
2010-06-03 06:34:40 51°16.188 2°53.236 8.4 353 13.3 102230 39
2010-06-03 06:34:45 51°16.205 2°53.224 8.3 352 13.3 102240 40
2010-06-03 06:34:50 51°16.221 2°53.21 8.5 353 13.3 102240 40
2010-06-03 06:34:55 51°16.238 2°53.197 8.4 352 13.3 102240 39
2010-06-03 06:35:00 51°16.254 2°53.184 8.5 352 13.3 102240 39
2010-06-03 06:35:05 51°16.271 2°53.17 7.9 350 13.3 102230 39
2010-06-03 06:35:10 51°16.287 2°53.158 7.6 348 13.3 102230 39
2010-06-03 06:35:15 51°16.304 2°53.144 7.8 351 13.3 102230 40
2010-06-03 06:35:20 51°16.321 2°53.131 7.5 279 13.3 102230 40
2010-06-03 06:35:25 51°16.337 2°53.117 7.7 351 13.3 102230 38
2010-06-03 06:35:30 51°16.354 2°53.104 8.9 352 13.3 102230 38
2010-06-03 06:35:35 51°16.371 2°53.091 8.3 351 13.3 102230 39
2010-06-03 06:35:40 51°16.387 2°53.077 8.8 350 13.3 102230 39
2010-06-03 06:35:45 51°16.404 2°53.064 8.9 351 13.3 102240 38
2010-06-03 06:35:50 51°16.42 2°53.05 8.6 353 13.3 102240 38
2010-06-03 06:35:55 51°16.437 2°53.037 8.9 352 13.3 102240 39
2010-06-03 06:36:00 51°16.454 2°53.024 9.2 352 13.3 102240 39
2010-06-03 06:36:05 51°16.471 2°53.011 7.8 352 13.3 102230 39
2010-06-03 06:36:10 51°16.487 2°52.997 7.8 352 13.3 102230 39
2010-06-03 06:36:15 51°16.504 2°52.984 9.8 351 13.3 102230 38
2010-06-03 06:36:20 51°16.521 2°52.97 10.2 352 13.3 102230 38
2010-06-03 06:36:25 51°16.537 2°52.956 8 351 13.3 102230 38
2010-06-03 06:36:30 51°16.554 2°52.942 9.2 353 13.3 102230 38
2010-06-03 06:36:35 51°16.571 2°52.929 8.8 352 13.3 102230 38
2010-06-03 06:36:40 51°16.587 2°52.915 9.2 353 13.3 102230 38
2010-06-03 06:36:45 51°16.604 2°52.902 8.9 354 13.3 102230 40
2010-06-03 06:36:50 51°16.621 2°52.889 8.5 352 13.3 102230 40
2010-06-03 06:36:55 51°16.638 2°52.875 8.6 355 13.2 102230 40
2010-06-03 06:37:00 51°16.654 2°52.861 8 353 13.2 102230 40
2010-06-03 06:37:05 51°16.671 2°52.847 8.5 352 13.2 102230 40
2010-06-03 06:37:10 51°16.688 2°52.834 9.6 351 13.2 102230 40
2010-06-03 06:37:15 51°16.704 2°52.82 7.6 354 13.3 102230 38
2010-06-03 06:37:20 51°16.721 2°52.806 7.5 351 13.3 102230 38
2010-06-03 06:37:25 51°16.737 2°52.792 8.5 350 13.3 102230 39
2010-06-03 06:37:30 51°16.754 2°52.778 7.6 351 13.3 102230 39
2010-06-03 06:37:35 51°16.771 2°52.765 9.8 349 13.2 102230 38
2010-06-03 06:37:40 51°16.788 2°52.752 9.1 278 13.2 102230 38
2010-06-03 06:37:45 51°16.805 2°52.739 8.8 351 13.3 102230 37
2010-06-03 06:37:50 51°16.822 2°52.727 8 351 13.3 102230 37
2010-06-03 06:37:55 51°16.839 2°52.714 8.2 350 13.3 102230 39
2010-06-03 06:38:00 51°16.857 2°52.702 7.9 349 13.3 102230 39
2010-06-03 06:38:05 51°16.874 2°52.69 9.5 351 13.3 102230 38
2010-06-03 06:38:10 51°16.891 2°52.678 8.4 351 13.3 102230 38
2010-06-03 06:38:15 51°16.909 2°52.666 8.8 350 13.3 102240 39
2010-06-03 06:38:20 51°16.926 2°52.655 7.2 277 13.3 102240 39
2010-06-03 06:38:25 51°16.944 2°52.643 9.1 349 13.3 102240 38
2010-06-03 06:38:30 51°16.961 2°52.631 8.9 350 13.3 102240 38
2010-06-03 06:38:35 51°16.979 2°52.619 8.7 350 13.3 102230 38
2010-06-03 06:38:40 51°16.997 2°52.608 8.8 350 13.3 102230 38
2010-06-03 06:38:45 51°17.014 2°52.596 8.9 349 13.3 102240 38
2010-06-03 06:38:50 51°17.032 2°52.585 9.2 279 13.3 102240 38
2010-06-03 06:38:55 51°17.05 2°52.577 8.1 348 13.3 102230 40
2010-06-03 06:39:00 51°17.069 2°52.568 10.2 348 13.3 102230 40
2010-06-03 06:39:05 51°17.087 2°52.561 8.2 348 13.3 102230 40
2010-06-03 06:39:10 51°17.106 2°52.554 8.9 348 13.3 102230 40
2010-06-03 06:39:15 51°17.124 2°52.549 8.7 347 13.3 102230 40
2010-06-03 06:39:20 51°17.143 2°52.543 9.2 348 13.3 102230 40
2010-06-03 06:39:25 51°17.162 2°52.538 8.6 345 13.3 102230 40
2010-06-03 06:39:30 51°17.181 2°52.533 8.8 280 13.3 102230 40
2010-06-03 06:39:35 51°17.2 2°52.528 9.4 348 13.2 102230 39
2010-06-03 06:39:40 51°17.219 2°52.524 8.3 279 13.2 102230 39
2010-06-03 06:39:45 51°17.238 2°52.519 9.8 346 13.2 102230 39
2010-06-03 06:39:50 51°17.257 2°52.515 9.3 283 13.2 102230 39
2010-06-03 06:39:55 51°17.276 2°52.51 8.7 346 13.2 102230 39
2010-06-03 06:40:00 51°17.295 2°52.506 8.6 283 13.2 102230 39
2010-06-03 06:40:05 51°17.314 2°52.501 8.9 346 13.3 102230 38
2010-06-03 06:40:10 51°17.333 2°52.496 10.9 280 13.3 102230 38
2010-06-03 06:40:15 51°17.352 2°52.491 8.7 347 13.3 102220 38
2010-06-03 06:40:20 51°17.371 2°52.487 9.2 347 13.3 102220 38
2010-06-03 06:40:25 51°17.39 2°52.484 8.5 348 13.2 102230 36
2010-06-03 06:40:30 51°17.409 2°52.481 8.8 280 13.2 102230 36
2010-06-03 06:40:35 51°17.428 2°52.478 8 345 13.2 102220 38
2010-06-03 06:40:40 51°17.446 2°52.476 8.2 281 13.2 102220 38
2010-06-03 06:40:45 51°17.466 2°52.473 10.2 344 13.2 102230 39
2010-06-03 06:40:50 51°17.484 2°52.47 9.4 281 13.2 102230 39
2010-06-03 06:40:55 51°17.503 2°52.468 9.3 344 13.2 102230 38
2010-06-03 06:41:00 51°17.522 2°52.465 9.8 283 13.2 102230 38
2010-06-03 06:41:05 51°17.541 2°52.462 9.2 346 13.3 102230 38
2010-06-03 06:41:10 51°17.56 2°52.459 9.5 284 13.3 102230 38
2010-06-03 06:41:15 51°17.579 2°52.456 9.8 346 13.2 102220 38
2010-06-03 06:41:20 51°17.598 2°52.453 9.3 284 13.2 102220 38
2010-06-03 06:41:25 51°17.617 2°52.451 9.8 346 13.2 102230 38
2010-06-03 06:41:30 51°17.636 2°52.45 9.7 279 13.2 102230 38
2010-06-03 06:41:35 51°17.654 2°52.449 11.3 345 13.2 102230 37
2010-06-03 06:41:40 51°17.673 2°52.449 10.4 284 13.2 102230 37
2010-06-03 06:41:45 51°17.693 2°52.448 10.1 345 13.2 102230 38
2010-06-03 06:41:50 51°17.712 2°52.449 8.7 281 13.2 102230 38
2010-06-03 06:41:55 51°17.73 2°52.449 10.2 344 13.2 102220 38
2010-06-03 06:42:00 51°17.75 2°52.45 9 285 13.2 102220 38
2010-06-03 06:42:05 51°17.769 2°52.45 9.4 346 13.2 102220 38
2010-06-03 06:42:10 51°17.788 2°52.451 9.8 284 13.2 102220 38
2010-06-03 06:42:15 51°17.807 2°52.45 9.7 346 13.2 102230 39
2010-06-03 06:42:20 51°17.826 2°52.451 8.9 282 13.2 102230 39
2010-06-03 06:42:25 51°17.845 2°52.451 8.7 344 13.2 102220 39
2010-06-03 06:42:30 51°17.864 2°52.451 8.8 284 13.2 102220 39
2010-06-03 06:42:35 51°17.883 2°52.451 9.6 344 13.2 102220 37
2010-06-03 06:42:40 51°17.902 2°52.452 10.1 281 13.2 102220 37
2010-06-03 06:42:45 51°17.922 2°52.452 9.8 343 13.2 102230 38
2010-06-03 06:42:50 51°17.941 2°52.452 9.8 344 13.2 102230 38
2010-06-03 06:42:55 51°17.96 2°52.455 9.5 343 13.2 102230 39
2010-06-03 06:43:00 51°17.979 2°52.456 9.6 281 13.2 102230 39
2010-06-03 06:43:05 51°17.998 2°52.459 9 341 13.3 102230 38
2010-06-03 06:43:10 51°18.017 2°52.46 10.1 282 13.3 102230 38
2010-06-03 06:43:15 51°18.036 2°52.464 9.5 341 13.3 102220 38
2010-06-03 06:43:20 51°18.055 2°52.466 9.9 282 13.3 102220 38
2010-06-03 06:43:25 51°18.074 2°52.469 9.6 343 13.3 102220 37
2010-06-03 06:43:30 51°18.093 2°52.471 9.5 278 13.3 102220 37
2010-06-03 06:43:35 51°18.112 2°52.474 9.6 342 13.3 102230 39
2010-06-03 06:43:40 51°18.131 2°52.477 9.3 283 13.3 102230 39
2010-06-03 06:43:45 51°18.15 2°52.48 10 341 13.3 102220 38
2010-06-03 06:43:50 51°18.169 2°52.482 10.6 280 13.3 102220 38
2010-06-03 06:43:55 51°18.188 2°52.485 10.4 342 13.3 102230 40
2010-06-03 06:44:00 51°18.207 2°52.487 9.3 284 13.3 102230 40
2010-06-03 06:44:05 51°18.226 2°52.49 10.3 342 13.3 102230 40
2010-06-03 06:44:10 51°18.245 2°52.493 10.5 282 13.3 102230 40
2010-06-03 06:44:15 51°18.264 2°52.495 9.5 343 13.3 102220 38
2010-06-03 06:44:20 51°18.283 2°52.498 9.7 281 13.3 102220 38
2010-06-03 06:44:25 51°18.302 2°52.5 10.4 344 13.3 102220 40
2010-06-03 06:44:30 51°18.321 2°52.503 9.2 278 13.3 102220 40
2010-06-03 06:44:35 51°18.341 2°52.505 8.9 341 13.3 102230 40
2010-06-03 06:44:40 51°18.36 2°52.508 10.6 285 13.3 102230 40
2010-06-03 06:44:45 51°18.379 2°52.51 10 342 13.3 102220 38
2010-06-03 06:44:50 51°18.398 2°52.513 10.2 281 13.3 102220 38
2010-06-03 06:44:55 51°18.417 2°52.515 10.8 343 13.3 102220 38
2010-06-03 06:45:00 51°18.436 2°52.518 10.1 280 13.3 102220 38
2010-06-03 06:45:05 51°18.455 2°52.521 10.5 343 13.3 102230 38
2010-06-03 06:45:10 51°18.474 2°52.523 10.2 286 13.3 102230 38
2010-06-03 06:45:15 51°18.493 2°52.526 10.2 342 13.3 102220 38
2010-06-03 06:45:20 51°18.512 2°52.528 11 277 13.3 102220 38
2010-06-03 06:45:25 51°18.531 2°52.531 10.7 343 13.3 102220 40
2010-06-03 06:45:30 51°18.55 2°52.533 10.4 281 13.3 102220 40
2010-06-03 06:45:35 51°18.569 2°52.536 9.8 343 13.3 102220 40
2010-06-03 06:45:40 51°18.588 2°52.538 10 283 13.3 102220 40
2010-06-03 06:45:45 51°18.607 2°52.54 10.5 344 13.3 102220 38
2010-06-03 06:45:50 51°18.626 2°52.543 8.7 278 13.3 102220 38
2010-06-03 06:45:55 51°18.645 2°52.545 9.5 342 13.3 102220 39
2010-06-03 06:46:00 51°18.664 2°52.548 9.5 282 13.3 102220 39
2010-06-03 06:46:05 51°18.684 2°52.551 10.4 343 13.3 102220 38
2010-06-03 06:46:10 51°18.703 2°52.553 9.8 277 13.3 102220 38
2010-06-03 06:46:15 51°18.722 2°52.556 9.3 343 13.3 102230 39
2010-06-03 06:46:20 51°18.741 2°52.558 9.7 278 13.3 102230 39
2010-06-03 06:46:25 51°18.76 2°52.561 9.5 345 13.3 102230 39
2010-06-03 06:46:30 51°18.779 2°52.564 8.9 280 13.3 102230 39
2010-06-03 06:46:35 51°18.798 2°52.566 10.4 342 13.3 102220 40
2010-06-03 06:46:40 51°18.817 2°52.569 10.2 276 13.3 102220 40
2010-06-03 06:46:45 51°18.836 2°52.571 10.7 343 13.3 102220 38
2010-06-03 06:46:50 51°18.855 2°52.573 10 282 13.3 102220 38
2010-06-03 06:46:55 51°18.873 2°52.576 10 342 13.3 102220 39
2010-06-03 06:47:00 51°18.892 2°52.578 9.4 279 13.3 102220 39
2010-06-03 06:47:05 51°18.912 2°52.579 9.7 341 13.3 102220 40
2010-06-03 06:47:10 51°18.93 2°52.581 9.2 282 13.3 102220 40
2010-06-03 06:47:15 51°18.949 2°52.583 10 342 13.3 102230 40
2010-06-03 06:47:20 51°18.968 2°52.585 9.1 284 13.3 102230 40
2010-06-03 06:47:25 51°18.987 2°52.587 10.1 342 13.3 102220 38
2010-06-03 06:47:30 51°19.005 2°52.588 9.8 279 13.3 102220 38
2010-06-03 06:47:35 51°19.024 2°52.59 9.6 342 13.3 102220 38
2010-06-03 06:47:40 51°19.043 2°52.592 9.3 282 13.3 102220 38
2010-06-03 06:47:45 51°19.062 2°52.593 9.8 344 13.3 102220 39
2010-06-03 06:47:50 51°19.081 2°52.595 10 284 13.3 102220 39
2010-06-03 06:47:55 51°19.099 2°52.598 9.9 343 13.3 102230 38
2010-06-03 06:48:00 51°19.118 2°52.6 10.1 277 13.3 102230 38
2010-06-03 06:48:05 51°19.137 2°52.602 9.8 343 13.3 102220 37
2010-06-03 06:48:10 51°19.156 2°52.603 9.5 282 13.3 102220 37
2010-06-03 06:48:15 51°19.175 2°52.605 9.1 343 13.3 102220 38
2010-06-03 06:48:20 51°19.194 2°52.607 9.6 285 13.3 102220 38
2010-06-03 06:48:25 51°19.212 2°52.609 9.9 343 13.3 102230 39
2010-06-03 06:48:30 51°19.231 2°52.61 9.9 276 13.3 102230 39
2010-06-03 06:48:35 51°19.25 2°52.612 9.7 343 13.3 102220 40
2010-06-03 06:48:40 51°19.269 2°52.614 9.8 278 13.3 102220 40
2010-06-03 06:48:45 51°19.288 2°52.616 9.8 343 13.3 102220 38
2010-06-03 06:48:50 51°19.307 2°52.617 10.5 282 13.3 102220 38
2010-06-03 06:48:55 51°19.326 2°52.619 9.4 343 13.3 102230 39
2010-06-03 06:49:00 51°19.345 2°52.621 8.9 278 13.3 102230 39
2010-06-03 06:49:05 51°19.364 2°52.623 9.7 342 13.3 102230 37
2010-06-03 06:49:10 51°19.383 2°52.625 9.4 278 13.3 102230 37
2010-06-03 06:49:15 51°19.402 2°52.627 11.6 342 13.3 102230 38
2010-06-03 06:49:20 51°19.421 2°52.629 9.7 278 13.3 102230 38
2010-06-03 06:49:25 51°19.44 2°52.63 10.2 343 13.4 102230 38
2010-06-03 06:49:30 51°19.459 2°52.632 10.5 283 13.4 102230 38
2010-06-03 06:49:35 51°19.478 2°52.634 10 343 13.4 102220 40
2010-06-03 06:49:40 51°19.497 2°52.635 9 283 13.4 102220 40
2010-06-03 06:49:45 51°19.516 2°52.637 8.7 341 13.4 102230 39
2010-06-03 06:49:50 51°19.535 2°52.639 10.2 284 13.4 102230 39
2010-06-03 06:49:55 51°19.554 2°52.641 9.3 342 13.3 102220 37
2010-06-03 06:50:00 51°19.573 2°52.643 9.5 284 13.3 102220 37
2010-06-03 06:50:05 51°19.591 2°52.644 9.2 342 13.3 102230 39
2010-06-03 06:50:10 51°19.611 2°52.646 9.9 279 13.3 102230 39
2010-06-03 06:50:15 51°19.629 2°52.648 9.9 343 13.3 102230 39
2010-06-03 06:50:20 51°19.648 2°52.649 10 285 13.3 102230 39
2010-06-03 06:50:25 51°19.667 2°52.652 9.3 344 13.4 102230 40
2010-06-03 06:50:30 51°19.686 2°52.653 9.5 283 13.4 102230 40
2010-06-03 06:50:35 51°19.705 2°52.655 9.7 342 13.4 102240 38
2010-06-03 06:50:40 51°19.724 2°52.656 9.8 278 13.4 102240 38
2010-06-03 06:50:45 51°19.743 2°52.659 10.6 341 13.4 102240 38
2010-06-03 06:50:50 51°19.762 2°52.661 9.7 278 13.4 102240 38
2010-06-03 06:50:55 51°19.781 2°52.663 10.7 341 13.4 102240 38
2010-06-03 06:51:00 51°19.8 2°52.665 10.8 282 13.4 102240 38
2010-06-03 06:51:05 51°19.819 2°52.667 9.9 341 13.4 102230 37
2010-06-03 06:51:10 51°19.837 2°52.669 9.8 281 13.4 102230 37
2010-06-03 06:51:15 51°19.856 2°52.671 9.4 342 13.4 102240 38
2010-06-03 06:51:20 51°19.875 2°52.673 10.5 277 13.4 102240 38
2010-06-03 06:51:25 51°19.894 2°52.675 10.4 342 13.4 102230 38
2010-06-03 06:51:30 51°19.913 2°52.677 9.4 280 13.4 102230 38
2010-06-03 06:51:35 51°19.932 2°52.679 10.2 343 13.4 102230 39
2010-06-03 06:51:40 51°19.95 2°52.681 9.1 280 13.4 102230 39
2010-06-03 06:51:45 51°19.969 2°52.684 9 343 13.4 102230 38
2010-06-03 06:51:50 51°19.988 2°52.686 10.2 282 13.4 102230 38
2010-06-03 06:51:55 51°20.007 2°52.688 9.8 343 13.4 102240 40
2010-06-03 06:52:00 51°20.025 2°52.69 9.2 278 13.4 102240 40
2010-06-03 06:52:05 51°20.044 2°52.692 9.7 342 13.4 102240 39
2010-06-03 06:52:10 51°20.063 2°52.695 9.6 280 13.4 102240 39
2010-06-03 06:52:15 51°20.081 2°52.697 10.1 341 13.4 102240 37
2010-06-03 06:52:20 51°20.1 2°52.702 10.5 279 13.4 102240 37
2010-06-03 06:52:25 51°20.118 2°52.708 10.4 340 13.4 102240 40
2010-06-03 06:52:30 51°20.136 2°52.714 9.9 281 13.4 102240 40
2010-06-03 06:52:35 51°20.154 2°52.723 10.3 339 13.4 102230 37
2010-06-03 06:52:40 51°20.172 2°52.731 10 279 13.4 102230 37
2010-06-03 06:52:45 51°20.19 2°52.74 9.9 340 13.4 102240 40
2010-06-03 06:52:50 51°20.208 2°52.748 10.7 280 13.4 102240 40
2010-06-03 06:52:55 51°20.226 2°52.759 10.1 339 13.4 102240 39
2010-06-03 06:53:00 51°20.244 2°52.768 9.7 286 13.4 102240 39
2010-06-03 06:53:05 51°20.261 2°52.78 10.9 337 13.4 102240 39
2010-06-03 06:53:10 51°20.279 2°52.79 10.9 280 13.4 102240 39
2010-06-03 06:53:15 51°20.297 2°52.801 12.2 339 13.4 102240 40
2010-06-03 06:53:20 51°20.314 2°52.812 11.7 278 13.4 102240 40
2010-06-03 06:53:25 51°20.332 2°52.823 11.3 339 13.4 102250 38
2010-06-03 06:53:30 51°20.35 2°52.834 10.6 285 13.4 102250 38
2010-06-03 06:53:35 51°20.367 2°52.845 10.5 339 13.4 102240 38
2010-06-03 06:53:40 51°20.385 2°52.856 10 279 13.4 102240 38
2010-06-03 06:53:45 51°20.403 2°52.867 9.9 338 13.4 102240 38
2010-06-03 06:53:50 51°20.421 2°52.878 9.9 284 13.4 102240 38
2010-06-03 06:53:55 51°20.438 2°52.89 9.2 334 13.5 102240 38
2010-06-03 06:54:00 51°20.456 2°52.9 9.6 283 13.5 102240 38
2010-06-03 06:54:05 51°20.474 2°52.911 9.5 334 13.5 102240 37
2010-06-03 06:54:10 51°20.492 2°52.922 9.9 283 13.5 102240 37
2010-06-03 06:54:15 51°20.51 2°52.933 9.7 333 13.5 102240 38
2010-06-03 06:54:20 51°20.528 2°52.943 10.4 281 13.5 102240 38
2010-06-03 06:54:25 51°20.546 2°52.954 10.2 334 13.6 102250 40
2010-06-03 06:54:30 51°20.564 2°52.964 11.9 278 13.6 102250 40
2010-06-03 06:54:35 51°20.582 2°52.976 11.3 334 13.6 102240 40
2010-06-03 06:54:40 51°20.6 2°52.986 10.6 278 13.6 102240 40
2010-06-03 06:54:45 51°20.618 2°52.997 9.6 334 13.6 102250 39
2010-06-03 06:54:50 51°20.636 2°53.007 10.9 278 13.6 102250 39
2010-06-03 06:54:55 51°20.654 2°53.018 10.5 334 13.6 102240 39
2010-06-03 06:55:00 51°20.672 2°53.028 9.8 279 13.6 102240 39
2010-06-03 06:55:05 51°20.69 2°53.039 9.6 335 13.6 102250 40
2010-06-03 06:55:10 51°20.708 2°53.05 10.6 282 13.6 102250 40
2010-06-03 06:55:15 51°20.726 2°53.06 9.8 335 13.7 102250 39
2010-06-03 06:55:20 51°20.743 2°53.071 10.7 281 13.7 102250 39
2010-06-03 06:55:25 51°20.761 2°53.081 9.9 334 13.7 102250 41
2010-06-03 06:55:30 51°20.779 2°53.091 9.8 283 13.7 102250 41
2010-06-03 06:55:35 51°20.797 2°53.102 10.6 335 13.7 102240 41
2010-06-03 06:55:40 51°20.815 2°53.112 9.6 281 13.7 102240 41
2010-06-03 06:55:45 51°20.833 2°53.122 9.7 335 13.7 102250 39
2010-06-03 06:55:50 51°20.851 2°53.133 10.4 279 13.7 102250 39
2010-06-03 06:55:55 51°20.869 2°53.143 10.1 334 13.7 102250 40
2010-06-03 06:56:00 51°20.887 2°53.154 10.2 283 13.7 102250 40
2010-06-03 06:56:05 51°20.905 2°53.164 10.7 333 13.6 102250 39
2010-06-03 06:56:10 51°20.923 2°53.174 11.3 282 13.6 102250 39
2010-06-03 06:56:15 51°20.941 2°53.185 10.2 335 13.6 102250 39
2010-06-03 06:56:20 51°20.959 2°53.195 10.1 283 13.6 102250 39
2010-06-03 06:56:25 51°20.977 2°53.206 9.8 334 13.6 102240 37
2010-06-03 06:56:30 51°20.995 2°53.216 10.8 277 13.6 102240 37
2010-06-03 06:56:35 51°21.013 2°53.226 10 335 13.6 102250 40
2010-06-03 06:56:40 51°21.031 2°53.237 10.4 279 13.6 102250 40
2010-06-03 06:56:45 51°21.049 2°53.247 10.3 335 13.6 102250 39
2010-06-03 06:56:50 51°21.066 2°53.258 10.4 284 13.6 102250 39
2010-06-03 06:56:55 51°21.084 2°53.267 10 336 13.5 102240 39
2010-06-03 06:57:00 51°21.102 2°53.278 9.9 280 13.5 102240 39
2010-06-03 06:57:05 51°21.12 2°53.288 10.6 335 13.5 102240 39
2010-06-03 06:57:10 51°21.138 2°53.298 10.6 283 13.5 102250 38
2010-06-03 06:57:15 51°21.156 2°53.307 10.1 334 13.5 102250 40
2010-06-03 06:57:20 51°21.174 2°53.318 11.1 277 13.5 102250 40
2010-06-03 06:57:25 51°21.192 2°53.328 11.6 335 13.5 102250 39
2010-06-03 06:57:30 51°21.21 2°53.337 10.5 281 13.5 102250 39
2010-06-03 06:57:35 51°21.228 2°53.346 12.1 335 13.5 102250 40
2010-06-03 06:57:40 51°21.246 2°53.355 10.1 282 13.5 102250 40
2010-06-03 06:57:45 51°21.264 2°53.363 10.1 336 13.5 102240 39
2010-06-03 06:57:50 51°21.282 2°53.371 11 281 13.5 102240 39
2010-06-03 06:57:55 51°21.301 2°53.378 10.6 337 13.4 102240 40
2010-06-03 06:58:00 51°21.319 2°53.385 11.1 281 13.4 102240 40
2010-06-03 06:58:05 51°21.337 2°53.393 9.7 338 13.4 102240 40
2010-06-03 06:58:10 51°21.356 2°53.4 9.6 283 13.4 102240 40
2010-06-03 06:58:15 51°21.374 2°53.407 10.3 338 13.4 102240 40
2010-06-03 06:58:20 51°21.393 2°53.414 10.7 285 13.4 102240 40
2010-06-03 06:58:25 51°21.411 2°53.42 9.7 337 13.4 102240 39
2010-06-03 06:58:30 51°21.43 2°53.427 10.2 283 13.4 102240 39
2010-06-03 06:58:35 51°21.448 2°53.434 10 337 13.4 102240 40
2010-06-03 06:58:40 51°21.467 2°53.441 11.3 282 13.4 102240 40
2010-06-03 06:58:45 51°21.485 2°53.448 11.5 336 13.4 102240 39
2010-06-03 06:58:50 51°21.504 2°53.455 11.5 282 13.4 102240 39
2010-06-03 06:58:55 51°21.522 2°53.462 10.7 338 13.4 102240 40
2010-06-03 06:59:00 51°21.54 2°53.469 10 282 13.4 102240 40
2010-06-03 06:59:05 51°21.559 2°53.475 10.5 336 13.4 102250 38
2010-06-03 06:59:10 51°21.577 2°53.482 10.5 277 13.4 102250 38
2010-06-03 06:59:15 51°21.596 2°53.489 10.4 338 13.4 102240 40
2010-06-03 06:59:20 51°21.614 2°53.496 10.8 284 13.4 102240 40
2010-06-03 06:59:25 51°21.633 2°53.503 10.2 338 13.4 102240 40
2010-06-03 06:59:30 51°21.651 2°53.51 10.2 280 13.4 102240 40
2010-06-03 06:59:35 51°21.67 2°53.518 10.4 338 13.4 102250 40
2010-06-03 06:59:40 51°21.688 2°53.526 9.9 283 13.4 102250 40
2010-06-03 06:59:45 51°21.706 2°53.534 11 338 13.4 102250 40
2010-06-03 06:59:50 51°21.725 2°53.541 11.3 281 13.4 102250 40
2010-06-03 06:59:55 51°21.743 2°53.549 9.2 338 13.4 102240 40
2010-06-03 07:00:00 51°21.762 2°53.557 9.7 281 13.4 102240 40
2010-06-03 07:00:05 51°21.78 2°53.564 10.3 339 13.4 102240 40
2010-06-03 07:00:10 51°21.799 2°53.572 10.1 279 13.4 102240 40
2010-06-03 07:00:15 51°21.817 2°53.579 10.5 338 13.4 102240 40
2010-06-03 07:00:20 51°21.836 2°53.586 9.6 277 13.4 102240 40
2010-06-03 07:00:25 51°21.854 2°53.594 9.5 338 13.4 102250 40
2010-06-03 07:00:30 51°21.873 2°53.602 10.1 283 13.4 102250 40
2010-06-03 07:00:35 51°21.891 2°53.609 9.9 336 13.4 102250 40
2010-06-03 07:00:40 51°21.909 2°53.617 9.7 281 13.4 102250 40
2010-06-03 07:00:45 51°21.928 2°53.625 11.2 338 13.4 102250 41
2010-06-03 07:00:50 51°21.946 2°53.632 9.8 282 13.4 102250 41
2010-06-03 07:00:55 51°21.965 2°53.64 12 338 13.4 102240 40
2010-06-03 07:01:00 51°21.983 2°53.647 9.3 278 13.4 102240 40
2010-06-03 07:01:05 51°22.002 2°53.655 10 334 13.4 102250 40
2010-06-03 07:01:10 51°22.02 2°53.663 10.9 278 13.4 102250 40
2010-06-03 07:01:15 51°22.039 2°53.67 9.9 337 13.4 102240 40
2010-06-03 07:01:20 51°22.057 2°53.679 9.6 285 13.4 102240 40
2010-06-03 07:01:25 51°22.076 2°53.686 9.9 338 13.4 102240 39
2010-06-03 07:01:30 51°22.094 2°53.694 10.5 280 13.4 102240 39
2010-06-03 07:01:35 51°22.113 2°53.701 11 337 13.4 102240 39
2010-06-03 07:01:40 51°22.131 2°53.709 10.9 279 13.4 102240 39
2010-06-03 07:01:45 51°22.149 2°53.717 11.2 336 13.4 102250 39
2010-06-03 07:01:50 51°22.168 2°53.724 10.9 280 13.4 102250 39
2010-06-03 07:01:55 51°22.187 2°53.731 10.6 337 13.4 102250 39
2010-06-03 07:02:00 51°22.205 2°53.737 11.5 280 13.4 102250 39
2010-06-03 07:02:05 51°22.223 2°53.745 12.1 337 13.4 102250 39
2010-06-03 07:02:10 51°22.242 2°53.752 10 280 13.4 102250 39
2010-06-03 07:02:15 51°22.26 2°53.761 9.9 338 13.4 102250 40
2010-06-03 07:02:20 51°22.279 2°53.769 10.3 277 13.4 102250 40
2010-06-03 07:02:25 51°22.298 2°53.777 9.4 336 13.4 102250 39
2010-06-03 07:02:30 51°22.316 2°53.784 10.8 285 13.4 102250 39
2010-06-03 07:02:35 51°22.335 2°53.791 10.2 338 13.4 102250 40
2010-06-03 07:02:40 51°22.353 2°53.798 10.1 280 13.4 102250 40
2010-06-03 07:02:45 51°22.372 2°53.806 10.4 337 13.4 102250 41
2010-06-03 07:02:50 51°22.39 2°53.814 10.6 281 13.4 102250 41
2010-06-03 07:02:55 51°22.409 2°53.822 10.9 337 13.4 102250 39
2010-06-03 07:03:00 51°22.428 2°53.83 11.2 282 13.4 102250 39
2010-06-03 07:03:05 51°22.446 2°53.838 11.5 337 13.4 102250 39
2010-06-03 07:03:10 51°22.465 2°53.846 9.8 280 13.4 102250 39
2010-06-03 07:03:15 51°22.483 2°53.854 10.8 338 13.4 102250 39
2010-06-03 07:03:20 51°22.502 2°53.861 11.4 283 13.4 102250 39
2010-06-03 07:03:25 51°22.521 2°53.868 10.6 337 13.4 102250 39
2010-06-03 07:03:30 51°22.539 2°53.875 10.6 278 13.4 102250 39
2010-06-03 07:03:35 51°22.558 2°53.883 10.7 336 13.4 102250 38
2010-06-03 07:03:40 51°22.576 2°53.891 11.2 280 13.4 102250 38
2010-06-03 07:03:45 51°22.595 2°53.898 9.3 337 13.4 102250 38
2010-06-03 07:03:50 51°22.613 2°53.906 11.1 285 13.4 102250 38
2010-06-03 07:03:55 51°22.632 2°53.914 10.2 336 13.4 102250 39
2010-06-03 07:04:00 51°22.65 2°53.921 10.4 283 13.4 102250 39
2010-06-03 07:04:05 51°22.669 2°53.929 10.7 337 13.4 102250 40
2010-06-03 07:04:10 51°22.687 2°53.936 10.5 284 13.4 102250 40
2010-06-03 07:04:15 51°22.706 2°53.944 11.1 336 13.4 102250 39
2010-06-03 07:04:20 51°22.725 2°53.951 10.4 284 13.4 102250 39
2010-06-03 07:04:25 51°22.743 2°53.958 10.6 335 13.4 102250 39
2010-06-03 07:04:30 51°22.762 2°53.966 10.2 284 13.4 102250 39
2010-06-03 07:04:35 51°22.78 2°53.973 10 335 13.4 102260 40
2010-06-03 07:04:40 51°22.799 2°53.98 11.1 277 13.4 102260 40
2010-06-03 07:04:45 51°22.818 2°53.988 9.5 335 13.4 102240 39
2010-06-03 07:04:50 51°22.837 2°53.995 10.6 281 13.4 102240 39
2010-06-03 07:04:55 51°22.855 2°54.003 11 337 13.4 102260 41
2010-06-03 07:05:00 51°22.874 2°54.01 11.1 281 13.4 102260 41
2010-06-03 07:05:05 51°22.892 2°54.017 12.2 336 13.4 102260 41
2010-06-03 07:05:10 51°22.911 2°54.025 10.6 281 13.4 102260 41
2010-06-03 07:05:15 51°22.93 2°54.032 10.1 336 13.4 102250 41
2010-06-03 07:05:20 51°22.949 2°54.04 10.4 286 13.4 102250 41
2010-06-03 07:05:25 51°22.967 2°54.047 11.1 336 13.4 102260 39
2010-06-03 07:05:30 51°22.986 2°54.055 10 282 13.4 102260 39
2010-06-03 07:05:35 51°23.005 2°54.063 10.6 335 13.4 102250 39
2010-06-03 07:05:40 51°23.024 2°54.07 10.2 284 13.4 102250 39
2010-06-03 07:05:45 51°23.042 2°54.078 10.9 337 13.4 102260 40
2010-06-03 07:05:50 51°23.061 2°54.085 10.4 286 13.4 102260 40
2010-06-03 07:05:55 51°23.08 2°54.092 11.6 336 13.4 102250 41
2010-06-03 07:06:00 51°23.099 2°54.1 10.7 283 13.4 102250 41
2010-06-03 07:06:05 51°23.118 2°54.108 9.6 336 13.4 102250 41
2010-06-03 07:06:10 51°23.137 2°54.115 9.9 284 13.4 102260 40
2010-06-03 07:06:15 51°23.156 2°54.123 10.2 336 13.4 102250 39
2010-06-03 07:06:20 51°23.174 2°54.131 10.8 286 13.4 102250 39
2010-06-03 07:06:25 51°23.193 2°54.138 10.9 336 13.4 102250 39
2010-06-03 07:06:30 51°23.212 2°54.146 11.5 285 13.4 102250 39
2010-06-03 07:06:35 51°23.231 2°54.152 10.1 336 13.4 102250 41
2010-06-03 07:06:40 51°23.25 2°54.157 11.5 282 13.4 102250 41
2010-06-03 07:06:45 51°23.27 2°54.163 9.4 337 13.4 102250 39
2010-06-03 07:06:50 51°23.289 2°54.168 11.8 282 13.4 102250 39
2010-06-03 07:06:55 51°23.308 2°54.173 9.8 337 13.4 102250 41
2010-06-03 07:07:00 51°23.327 2°54.177 11 282 13.4 102250 41
2010-06-03 07:07:05 51°23.346 2°54.182 11 338 13.4 102250 40
2010-06-03 07:07:10 51°23.366 2°54.186 10.9 282 13.4 102250 40
2010-06-03 07:07:15 51°23.385 2°54.191 10.5 336 13.3 102250 39
2010-06-03 07:07:20 51°23.404 2°54.195 10.2 283 13.3 102250 39
2010-06-03 07:07:25 51°23.423 2°54.199 11.2 337 13.3 102250 39
2010-06-03 07:07:30 51°23.442 2°54.204 10.6 279 13.3 102250 39
2010-06-03 07:07:35 51°23.461 2°54.208 10.9 339 13.3 102250 40
2010-06-03 07:07:40 51°23.481 2°54.213 9.8 285 13.3 102250 40
2010-06-03 07:07:45 51°23.5 2°54.217 9.9 336 13.3 102250 39
2010-06-03 07:07:50 51°23.519 2°54.222 10.9 278 13.3 102250 39
2010-06-03 07:07:55 51°23.538 2°54.225 11.3 338 13.3 102260 39
2010-06-03 07:08:00 51°23.558 2°54.23 9.8 282 13.3 102260 39
2010-06-03 07:08:05 51°23.577 2°54.234 11 338 13.3 102250 39
2010-06-03 07:08:10 51°23.596 2°54.238 11 282 13.3 102250 39
2010-06-03 07:08:15 51°23.615 2°54.242 10.3 337 13.3 102250 39
2010-06-03 07:08:20 51°23.634 2°54.246 11.1 282 13.3 102250 39
2010-06-03 07:08:25 51°23.653 2°54.251 10.6 336 13.3 102260 40
2010-06-03 07:08:30 51°23.673 2°54.255 10.5 285 13.3 102260 40
2010-06-03 07:08:35 51°23.692 2°54.259 11 338 13.3 102250 40
2010-06-03 07:08:40 51°23.711 2°54.264 9.5 284 13.3 102250 40
2010-06-03 07:08:45 51°23.73 2°54.269 9.3 337 13.3 102260 39
2010-06-03 07:08:50 51°23.749 2°54.273 10.7 281 13.3 102260 39
2010-06-03 07:08:55 51°23.768 2°54.278 10.6 337 13.3 102250 41
2010-06-03 07:09:00 51°23.787 2°54.283 10.2 281 13.3 102250 41
2010-06-03 07:09:05 51°23.807 2°54.287 9.3 338 13.3 102260 41
2010-06-03 07:09:10 51°23.826 2°54.292 10.7 283 13.3 102260 41
2010-06-03 07:09:15 51°23.845 2°54.296 10.1 338 13.3 102260 39
2010-06-03 07:09:20 51°23.864 2°54.301 11.2 283 13.3 102260 39
2010-06-03 07:09:25 51°23.884 2°54.305 11.1 338 13.3 102250 41
2010-06-03 07:09:30 51°23.903 2°54.31 10.8 284 13.3 102250 41
2010-06-03 07:09:35 51°23.922 2°54.314 10.8 338 13.3 102250 41
2010-06-03 07:09:40 51°23.941 2°54.318 9.8 280 13.3 102250 41
2010-06-03 07:09:45 51°23.961 2°54.322 10.7 337 13.3 102250 40
2010-06-03 07:09:50 51°23.98 2°54.326 11 282 13.3 102250 40
2010-06-03 07:09:55 51°23.999 2°54.33 9.9 337 13.3 102260 39
2010-06-03 07:10:00 51°24.018 2°54.335 9.9 283 13.3 102260 39
2010-06-03 07:10:05 51°24.037 2°54.34 9.4 338 13.3 102250 41
2010-06-03 07:10:10 51°24.057 2°54.344 10.4 282 13.3 102250 41
2010-06-03 07:10:15 51°24.076 2°54.349 9.6 338 13.3 102250 40
2010-06-03 07:10:20 51°24.095 2°54.353 10.6 286 13.3 102250 40
2010-06-03 07:10:25 51°24.114 2°54.358 9.8 338 13.3 102250 40
2010-06-03 07:10:30 51°24.133 2°54.362 10.3 283 13.3 102250 40
2010-06-03 07:10:35 51°24.152 2°54.366 9.9 337 13.3 102240 40
2010-06-03 07:10:40 51°24.171 2°54.37 9.8 283 13.3 102240 40
2010-06-03 07:10:45 51°24.191 2°54.375 10.2 337 13.3 102240 40
2010-06-03 07:10:50 51°24.21 2°54.379 10.4 278 13.3 102260 40
2010-06-03 07:10:55 51°24.229 2°54.383 9.7 338 13.3 102260 41
2010-06-03 07:11:00 51°24.249 2°54.387 9.3 277 13.3 102260 41
2010-06-03 07:11:05 51°24.268 2°54.392 9.2 339 13.3 102260 41
2010-06-03 07:11:10 51°24.287 2°54.396 10.7 279 13.3 102260 41
2010-06-03 07:11:15 51°24.306 2°54.399 10.4 337 13.3 102250 41
2010-06-03 07:11:20 51°24.326 2°54.405 11.1 279 13.3 102250 41
2010-06-03 07:11:25 51°24.346 2°54.408 10.9 339 13.3 102250 41
2010-06-03 07:11:30 51°24.364 2°54.413 9.7 284 13.3 102250 41
2010-06-03 07:11:35 51°24.383 2°54.418 9.4 337 13.3 102240 39
2010-06-03 07:11:40 51°24.402 2°54.423 10.3 279 13.3 102240 39
2010-06-03 07:11:45 51°24.421 2°54.427 10 338 13.3 102240 40
2010-06-03 07:11:50 51°24.441 2°54.432 9.8 281 13.3 102240 40
2010-06-03 07:11:55 51°24.46 2°54.437 10.3 337 13.3 102250 42
2010-06-03 07:12:00 51°24.479 2°54.441 10.3 283 13.3 102250 42
2010-06-03 07:12:05 51°24.498 2°54.446 10.3 337 13.3 102250 39
2010-06-03 07:12:10 51°24.518 2°54.451 10.8 279 13.3 102250 39
2010-06-03 07:12:15 51°24.537 2°54.455 9.5 337 13.3 102240 41
2010-06-03 07:12:20 51°24.556 2°54.459 10.3 282 13.3 102240 41
2010-06-03 07:12:25 51°24.576 2°54.464 10.3 339 13.3 102240 39
2010-06-03 07:12:30 51°24.595 2°54.469 9.3 277 13.3 102240 39
2010-06-03 07:12:35 51°24.614 2°54.473 9.3 337 13.2 102250 40
2010-06-03 07:12:40 51°24.633 2°54.478 10.3 280 13.2 102250 40
2010-06-03 07:12:45 51°24.653 2°54.482 10 340 13.3 102250 40
2010-06-03 07:12:50 51°24.672 2°54.486 9.3 285 13.3 102250 40
2010-06-03 07:12:55 51°24.691 2°54.491 9.1 339 13.2 102250 41
2010-06-03 07:13:00 51°24.711 2°54.495 9.8 285 13.2 102250 41
2010-06-03 07:13:05 51°24.73 2°54.5 10.6 337 13.2 102250 41
2010-06-03 07:13:10 51°24.749 2°54.505 10.4 283 13.2 102250 41
2010-06-03 07:13:15 51°24.769 2°54.509 10.2 337 13.2 102250 41
2010-06-03 07:13:20 51°24.788 2°54.514 8.9 281 13.2 102250 41
2010-06-03 07:13:25 51°24.807 2°54.518 9.6 338 13.3 102250 41
2010-06-03 07:13:30 51°24.827 2°54.523 9.8 277 13.3 102250 41
2010-06-03 07:13:35 51°24.846 2°54.527 9.8 336 13.3 102250 41
2010-06-03 07:13:40 51°24.865 2°54.532 10.1 276 13.3 102250 41
2010-06-03 07:13:45 51°24.885 2°54.536 10.4 338 13.3 102250 40
2010-06-03 07:13:50 51°24.904 2°54.541 10.4 284 13.3 102250 40
2010-06-03 07:13:55 51°24.923 2°54.546 9.7 338 13.3 102250 40
2010-06-03 07:14:00 51°24.943 2°54.55 11.3 284 13.3 102250 40
2010-06-03 07:14:05 51°24.962 2°54.555 10.9 338 13.2 102240 40
2010-06-03 07:14:10 51°24.982 2°54.559 9.9 285 13.2 102240 40
2010-06-03 07:14:15 51°25.001 2°54.564 10 339 13.2 102250 41
2010-06-03 07:14:20 51°25.02 2°54.568 10.4 278 13.2 102250 41
2010-06-03 07:14:25 51°25.04 2°54.573 9.8 337 13.2 102250 42
2010-06-03 07:14:30 51°25.059 2°54.576 9.4 280 13.2 102250 42
2010-06-03 07:14:35 51°25.079 2°54.58 10 339 13.2 102250 41
2010-06-03 07:14:40 51°25.098 2°54.584 9.3 283 13.2 102250 41
2010-06-03 07:14:45 51°25.118 2°54.589 9.8 338 13.2 102250 40
2010-06-03 07:14:50 51°25.137 2°54.592 10.3 280 13.2 102250 40
2010-06-03 07:14:55 51°25.156 2°54.597 10.3 338 13.2 102250 42
2010-06-03 07:15:00 51°25.176 2°54.6 10.5 285 13.2 102250 42
2010-06-03 07:15:05 51°25.195 2°54.605 10.1 340 13.2 102250 38
2010-06-03 07:15:10 51°25.215 2°54.609 9.8 283 13.2 102250 38
2010-06-03 07:15:15 51°25.234 2°54.613 9.1 337 13.2 102260 41
2010-06-03 07:15:20 51°25.253 2°54.617 10.2 279 13.2 102260 41
2010-06-03 07:15:25 51°25.273 2°54.621 9.9 339 13.2 102250 40
2010-06-03 07:15:30 51°25.292 2°54.625 10.2 278 13.2 102250 40
2010-06-03 07:15:35 51°25.311 2°54.629 9.9 338 13.2 102260 41
2010-06-03 07:15:40 51°25.331 2°54.632 9.8 285 13.2 102260 41
2010-06-03 07:15:45 51°25.35 2°54.636 10.1 339 13.2 102260 40
2010-06-03 07:15:50 51°25.369 2°54.639 10.5 281 13.2 102260 40
2010-06-03 07:15:55 51°25.389 2°54.643 10.2 338 13.2 102250 41
2010-06-03 07:16:00 51°25.408 2°54.647 9.8 283 13.2 102250 41
2010-06-03 07:16:05 51°25.427 2°54.65 9.7 338 13.2 102250 41
2010-06-03 07:16:10 51°25.446 2°54.654 10.3 282 13.2 102250 41
2010-06-03 07:16:15 51°25.466 2°54.657 10.3 339 13.2 102250 40
2010-06-03 07:16:20 51°25.485 2°54.661 10.8 280 13.2 102250 40
2010-06-03 07:16:25 51°25.504 2°54.664 9.8 338 13.2 102250 42
2010-06-03 07:16:30 51°25.523 2°54.668 10.1 278 13.2 102250 42
2010-06-03 07:16:35 51°25.543 2°54.672 8.8 338 13.2 102260 39
2010-06-03 07:16:40 51°25.562 2°54.676 10 280 13.2 102260 39
2010-06-03 07:16:45 51°25.581 2°54.68 9.1 338 13.1 102250 39
2010-06-03 07:16:50 51°25.6 2°54.683 10.2 284 13.1 102250 39
2010-06-03 07:16:55 51°25.62 2°54.687 10.2 338 13.1 102250 42
2010-06-03 07:17:00 51°25.639 2°54.69 10.5 282 13.1 102250 42
2010-06-03 07:17:05 51°25.658 2°54.695 9.8 339 13.1 102250 42
2010-06-03 07:17:10 51°25.677 2°54.698 9.9 281 13.1 102250 42
2010-06-03 07:17:15 51°25.696 2°54.702 9.8 339 13.1 102260 41
2010-06-03 07:17:20 51°25.716 2°54.705 9.6 283 13.1 102260 41
2010-06-03 07:17:25 51°25.735 2°54.708 10.2 339 13.1 102240 40
2010-06-03 07:17:30 51°25.754 2°54.712 9.9 278 13.1 102240 40
2010-06-03 07:17:35 51°25.773 2°54.715 9.6 338 13.1 102260 42
2010-06-03 07:17:40 51°25.792 2°54.719 9.3 281 13.1 102260 42
2010-06-03 07:17:45 51°25.811 2°54.722 9.3 339 13.1 102250 40
2010-06-03 07:17:50 51°25.83 2°54.726 9.1 282 13.1 102250 40
2010-06-03 07:17:55 51°25.85 2°54.729 9.1 339 13.1 102260 40
2010-06-03 07:18:00 51°25.869 2°54.733 9.8 283 13.1 102260 40
2010-06-03 07:18:05 51°25.888 2°54.736 10.2 338 13.1 102260 40
2010-06-03 07:18:10 51°25.907 2°54.74 10.3 276 13.1 102260 40
2010-06-03 07:18:15 51°25.926 2°54.744 10 338 13.1 102240 42
2010-06-03 07:18:20 51°25.945 2°54.748 10.2 284 13.1 102240 42
2010-06-03 07:18:25 51°25.964 2°54.751 10.6 339 13.1 102250 41
2010-06-03 07:18:30 51°25.983 2°54.755 9.5 281 13.1 102250 41
2010-06-03 07:18:35 51°26.002 2°54.759 9.8 338 13.1 102240 40
2010-06-03 07:18:40 51°26.021 2°54.763 9.8 283 13.1 102240 40
2010-06-03 07:18:45 51°26.04 2°54.766 9.3 340 13.1 102250 41
2010-06-03 07:18:50 51°26.059 2°54.77 9.7 277 13.1 102250 41
2010-06-03 07:18:55 51°26.079 2°54.774 9.9 338 13.1 102240 41
2010-06-03 07:19:00 51°26.097 2°54.778 10.1 285 13.1 102240 41
2010-06-03 07:19:05 51°26.117 2°54.782 10.2 339 13.1 102250 41
2010-06-03 07:19:10 51°26.135 2°54.785 10.1 278 13.1 102250 41
2010-06-03 07:19:15 51°26.155 2°54.789 9 338 13.1 102250 40
2010-06-03 07:19:20 51°26.174 2°54.793 10.1 283 13.1 102250 40
2010-06-03 07:19:25 51°26.193 2°54.797 10.3 337 13 102250 40
2010-06-03 07:19:30 51°26.212 2°54.8 10.1 280 13 102250 40
2010-06-03 07:19:35 51°26.231 2°54.805 9.4 339 13 102260 40
2010-06-03 07:19:40 51°26.25 2°54.809 10.2 285 13 102260 40
2010-06-03 07:19:45 51°26.269 2°54.813 9.5 339 13.1 102250 42
2010-06-03 07:19:50 51°26.288 2°54.817 10.4 279 13.1 102250 42
2010-06-03 07:19:55 51°26.307 2°54.821 9.7 338 13 102250 41
2010-06-03 07:20:00 51°26.326 2°54.824 9.3 281 13 102250 41
2010-06-03 07:20:05 51°26.345 2°54.828 9.8 340 13 102250 42
2010-06-03 07:20:10 51°26.363 2°54.832 10.2 281 13 102250 42
2010-06-03 07:20:15 51°26.382 2°54.836 12 340 13 102250 42
2010-06-03 07:20:20 51°26.401 2°54.841 9.5 284 13 102250 42
2010-06-03 07:20:25 51°26.42 2°54.844 9.6 338 13.1 102250 39
2010-06-03 07:20:30 51°26.439 2°54.849 10.7 282 13.1 102250 39
2010-06-03 07:20:35 51°26.458 2°54.852 9.8 338 13 102250 41
2010-06-03 07:20:40 51°26.476 2°54.857 9.8 280 13 102250 41
2010-06-03 07:20:45 51°26.495 2°54.861 9.9 339 13.1 102250 41
2010-06-03 07:20:50 51°26.514 2°54.866 10.5 279 13.1 102250 41
2010-06-03 07:20:55 51°26.533 2°54.87 10.1 339 13.1 102250 41
2010-06-03 07:21:00 51°26.552 2°54.875 10.1 279 13.1 102250 41
2010-06-03 07:21:05 51°26.571 2°54.879 9.7 339 13 102250 40
2010-06-03 07:21:10 51°26.59 2°54.884 9.4 282 13 102250 40
2010-06-03 07:21:15 51°26.609 2°54.888 9.2 338 13.1 102260 39
2010-06-03 07:21:20 51°26.628 2°54.892 10.5 286 13.1 102260 39
2010-06-03 07:21:25 51°26.647 2°54.896 9.8 338 13 102240 42
2010-06-03 07:21:30 51°26.666 2°54.9 10.7 280 13 102240 42
2010-06-03 07:21:35 51°26.685 2°54.904 10.4 339 13 102250 41
2010-06-03 07:21:40 51°26.703 2°54.909 9.6 281 13 102250 41
2010-06-03 07:21:45 51°26.722 2°54.913 9.6 339 13 102250 41
2010-06-03 07:21:50 51°26.742 2°54.917 9.3 283 13 102250 41
2010-06-03 07:21:55 51°26.76 2°54.921 9.7 337 13 102260 41
2010-06-03 07:22:00 51°26.78 2°54.925 10.5 280 13 102260 41
2010-06-03 07:22:05 51°26.799 2°54.929 10.2 338 13 102250 41
2010-06-03 07:22:10 51°26.818 2°54.933 10.2 280 13 102250 41
2010-06-03 07:22:15 51°26.837 2°54.937 9.8 337 13 102260 40
2010-06-03 07:22:20 51°26.856 2°54.941 10.4 285 13 102260 40
2010-06-03 07:22:25 51°26.875 2°54.945 10.8 339 13 102240 42
2010-06-03 07:22:30 51°26.894 2°54.949 10.7 283 13 102240 42
2010-06-03 07:22:35 51°26.913 2°54.952 10.7 338 13 102250 40
2010-06-03 07:22:40 51°26.932 2°54.956 9.9 280 13 102250 40
2010-06-03 07:22:45 51°26.951 2°54.959 9.3 338 13 102260 40
2010-06-03 07:22:50 51°26.97 2°54.963 10.4 283 13 102260 40
2010-06-03 07:22:55 51°26.99 2°54.967 9.8 338 13 102240 41
2010-06-03 07:23:00 51°27.009 2°54.971 10.1 279 13 102240 41
2010-06-03 07:23:05 51°27.028 2°54.975 9.7 338 13 102240 39
2010-06-03 07:23:10 51°27.047 2°54.978 10.4 281 13 102240 39
2010-06-03 07:23:15 51°27.066 2°54.982 9.1 338 13 102260 40
2010-06-03 07:23:20 51°27.085 2°54.986 11.6 284 13 102260 40
2010-06-03 07:23:25 51°27.104 2°54.99 10.5 338 13 102240 39
2010-06-03 07:23:30 51°27.123 2°54.994 10.6 283 13 102240 39
2010-06-03 07:23:35 51°27.142 2°54.998 10.3 339 13 102250 42
2010-06-03 07:23:40 51°27.161 2°55.002 9.7 284 13 102250 42
2010-06-03 07:23:45 51°27.18 2°55.006 9.4 338 13 102250 41
2010-06-03 07:23:50 51°27.2 2°55.01 9.9 283 13 102250 41
2010-06-03 07:23:55 51°27.219 2°55.014 9.6 338 13 102250 40
2010-06-03 07:24:00 51°27.238 2°55.018 9.8 282 13 102250 40
2010-06-03 07:24:05 51°27.257 2°55.022 10 338 13 102250 40
2010-06-03 07:24:10 51°27.276 2°55.026 10.3 284 13 102250 40
2010-06-03 07:24:15 51°27.295 2°55.029 10 336 13 102260 40
2010-06-03 07:24:20 51°27.314 2°55.034 9.1 285 13 102260 40
2010-06-03 07:24:25 51°27.333 2°55.038 11.2 339 13 102260 40
2010-06-03 07:24:30 51°27.353 2°55.042 10.3 284 13 102260 40
2010-06-03 07:24:35 51°27.372 2°55.046 9.6 338 13 102250 40
2010-06-03 07:24:40 51°27.391 2°55.05 11 279 13 102250 40
2010-06-03 07:24:45 51°27.41 2°55.053 9.9 338 13 102250 40
2010-06-03 07:24:50 51°27.429 2°55.058 10.4 281 13 102250 40
2010-06-03 07:24:55 51°27.448 2°55.062 10.4 337 13 102250 41
2010-06-03 07:25:00 51°27.468 2°55.066 10.3 282 13 102250 41
2010-06-03 07:25:05 51°27.487 2°55.069 9.4 337 13 102250 40
2010-06-03 07:25:10 51°27.506 2°55.073 10.6 280 13 102250 40
2010-06-03 07:25:15 51°27.525 2°55.077 10.2 337 13 102250 40
2010-06-03 07:25:20 51°27.545 2°55.082 10.4 281 13 102250 40
2010-06-03 07:25:25 51°27.564 2°55.085 10.7 338 13 102250 40
2010-06-03 07:25:30 51°27.583 2°55.089 10.7 284 13 102250 40
2010-06-03 07:25:35 51°27.602 2°55.093 10.3 338 13 102250 41
2010-06-03 07:25:40 51°27.621 2°55.097 9.9 281 13 102250 41
2010-06-03 07:25:45 51°27.64 2°55.101 10.1 338 13 102250 40
2010-06-03 07:25:50 51°27.66 2°55.105 9.8 281 13 102250 40
2010-06-03 07:25:55 51°27.679 2°55.108 9.8 336 13 102240 40
2010-06-03 07:26:00 51°27.698 2°55.113 9.7 280 13 102240 40
2010-06-03 07:26:05 51°27.717 2°55.116 10.3 337 13 102250 42
2010-06-03 07:26:10 51°27.736 2°55.12 10.5 278 13 102250 42
2010-06-03 07:26:15 51°27.756 2°55.123 10.5 337 13 102250 40
2010-06-03 07:26:20 51°27.775 2°55.128 10.4 281 13 102250 40
2010-06-03 07:26:25 51°27.794 2°55.131 10.4 338 13 102250 41
2010-06-03 07:26:30 51°27.813 2°55.135 10.1 284 13 102250 41
2010-06-03 07:26:35 51°27.833 2°55.139 9.6 337 13 102250 42
2010-06-03 07:26:40 51°27.852 2°55.144 10 283 13 102250 42
2010-06-03 07:26:45 51°27.871 2°55.148 10.6 335 13 102250 40
2010-06-03 07:26:50 51°27.89 2°55.152 8.8 284 13 102250 40
2010-06-03 07:26:55 51°27.909 2°55.156 9.6 337 13 102260 41
2010-06-03 07:27:00 51°27.929 2°55.16 11.3 284 13 102260 41
2010-06-03 07:27:05 51°27.948 2°55.164 10.7 337 13 102250 42
2010-06-03 07:27:10 51°27.967 2°55.168 10.5 280 13 102250 42
2010-06-03 07:27:15 51°27.986 2°55.173 10.7 336 13 102250 40
2010-06-03 07:27:20 51°28.006 2°55.177 10.4 284 13 102250 40
2010-06-03 07:27:25 51°28.025 2°55.181 11.2 337 13 102250 41
2010-06-03 07:27:30 51°28.044 2°55.185 11.3 279 13 102250 41
2010-06-03 07:27:35 51°28.064 2°55.188 11 335 13 102260 40
2010-06-03 07:27:40 51°28.083 2°55.192 10.3 279 13 102260 40
2010-06-03 07:27:45 51°28.102 2°55.196 11.2 336 13 102250 40
2010-06-03 07:27:50 51°28.122 2°55.2 10.8 282 13 102250 40
2010-06-03 07:27:55 51°28.141 2°55.204 11.7 337 13 102250 42
2010-06-03 07:28:00 51°28.16 2°55.208 11.3 282 13 102250 42
2010-06-03 07:28:05 51°28.18 2°55.213 11.8 337 13 102250 40
2010-06-03 07:28:10 51°28.199 2°55.216 11.7 283 13 102250 40
2010-06-03 07:28:15 51°28.218 2°55.22 9.4 337 13 102250 40
2010-06-03 07:28:20 51°28.238 2°55.224 11.4 277 13 102250 40
2010-06-03 07:28:25 51°28.257 2°55.229 11.4 336 13 102250 39
2010-06-03 07:28:30 51°28.276 2°55.233 11.9 282 13 102250 39
2010-06-03 07:28:35 51°28.296 2°55.238 11.6 337 13 102260 39
2010-06-03 07:28:40 51°28.315 2°55.242 10.3 277 13 102260 39
2010-06-03 07:28:45 51°28.335 2°55.247 11 336 13 102260 40
2010-06-03 07:28:50 51°28.354 2°55.251 10.6 284 13 102260 40
2010-06-03 07:28:55 51°28.374 2°55.255 9.8 337 13 102250 39
2010-06-03 07:29:00 51°28.393 2°55.26 10.9 283 13 102250 39
2010-06-03 07:29:05 51°28.413 2°55.264 11 337 13 102260 42
2010-06-03 07:29:10 51°28.432 2°55.268 10 281 13 102260 42
2010-06-03 07:29:15 51°28.452 2°55.272 10.3 335 13 102250 40
2010-06-03 07:29:20 51°28.472 2°55.277 11.8 282 13 102250 40
2010-06-03 07:29:25 51°28.491 2°55.281 10.5 336 13 102250 40
2010-06-03 07:29:30 51°28.511 2°55.285 11 277 13 102250 40
2010-06-03 07:29:35 51°28.53 2°55.29 10.1 337 13 102250 40
2010-06-03 07:29:40 51°28.55 2°55.294 11.2 280 13 102250 40
2010-06-03 07:29:45 51°28.57 2°55.298 10.1 337 13 102250 41
2010-06-03 07:29:50 51°28.589 2°55.303 12.1 281 13 102250 41
2010-06-03 07:29:55 51°28.609 2°55.307 11.1 338 13 102260 41
2010-06-03 07:30:00 51°28.628 2°55.31 10.7 284 13 102260 41
2010-06-03 07:30:05 51°28.648 2°55.311 12 338 13 102260 41
2010-06-03 07:30:10 51°28.668 2°55.313 10.5 282 13 102260 41
2010-06-03 07:30:15 51°28.687 2°55.313 11 340 13 102260 40
2010-06-03 07:30:20 51°28.707 2°55.314 11 279 13 102260 40
2010-06-03 07:30:25 51°28.726 2°55.313 11 340 13 102260 42
2010-06-03 07:30:30 51°28.746 2°55.313 10.1 284 13 102260 42
2010-06-03 07:30:35 51°28.765 2°55.312 12.3 339 12.9 102250 42
2010-06-03 07:30:40 51°28.785 2°55.311 12.9 284 12.9 102250 42
2010-06-03 07:30:45 51°28.804 2°55.31 11.5 341 12.9 102250 42
2010-06-03 07:30:50 51°28.824 2°55.308 11.8 284 12.9 102250 42
2010-06-03 07:30:55 51°28.843 2°55.307 10.6 341 13 102260 41
2010-06-03 07:31:00 51°28.862 2°55.306 11.6 284 13 102260 41
2010-06-03 07:31:05 51°28.881 2°55.304 10.1 339 12.9 102250 40
2010-06-03 07:31:10 51°28.901 2°55.304 10.7 281 12.9 102250 40
2010-06-03 07:31:15 51°28.92 2°55.302 10.2 341 12.9 102260 41
2010-06-03 07:31:20 51°28.939 2°55.301 10.9 278 12.9 102260 41
2010-06-03 07:31:25 51°28.958 2°55.3 9.9 340 12.9 102260 40
2010-06-03 07:31:30 51°28.977 2°55.299 10.7 281 12.9 102260 40
2010-06-03 07:31:35 51°28.997 2°55.298 11.1 339 12.9 102260 42
2010-06-03 07:31:40 51°29.016 2°55.297 12 279 12.9 102260 42
2010-06-03 07:31:45 51°29.035 2°55.296 9.8 339 12.9 102260 40
2010-06-03 07:31:50 51°29.055 2°55.295 11.2 279 12.9 102260 40
2010-06-03 07:31:55 51°29.074 2°55.293 10.6 340 12.9 102260 40
2010-06-03 07:32:00 51°29.093 2°55.292 9.8 279 12.9 102260 40
2010-06-03 07:32:05 51°29.112 2°55.29 10.3 339 12.9 102260 40
2010-06-03 07:32:10 51°29.131 2°55.289 9.2 277 12.9 102260 40
2010-06-03 07:32:15 51°29.15 2°55.288 11.2 340 12.9 102260 39
2010-06-03 07:32:20 51°29.17 2°55.287 10.2 279 12.9 102260 39
2010-06-03 07:32:25 51°29.189 2°55.286 10.8 340 12.9 102260 40
2010-06-03 07:32:30 51°29.208 2°55.284 10.9 285 12.9 102260 40
2010-06-03 07:32:35 51°29.227 2°55.284 9.9 341 12.9 102260 39
2010-06-03 07:32:40 51°29.246 2°55.282 10.9 281 12.9 102260 39
2010-06-03 07:32:45 51°29.265 2°55.281 10.3 341 12.9 102260 42
2010-06-03 07:32:50 51°29.284 2°55.28 9.4 -999 12.9 102260 42
2010-06-03 07:32:55 51°29.303 2°55.28 10.4 340 12.9 102270 41
2010-06-03 07:33:00 51°29.322 2°55.278 10.3 281 12.9 102270 41
2010-06-03 07:33:05 51°29.341 2°55.278 10.6 341 12.9 102260 40
2010-06-03 07:33:10 51°29.36 2°55.277 9.6 283 12.9 102260 40
2010-06-03 07:33:15 51°29.379 2°55.276 9.5 341 12.9 102260 40
2010-06-03 07:33:20 51°29.398 2°55.275 11.7 285 12.9 102260 40
2010-06-03 07:33:25 51°29.417 2°55.274 10.6 342 12.9 102260 40
2010-06-03 07:33:30 51°29.436 2°55.273 10.9 282 12.9 102260 40
2010-06-03 07:33:35 51°29.455 2°55.272 10.2 341 12.9 102270 40
2010-06-03 07:33:40 51°29.474 2°55.272 10.5 277 12.9 102270 40
2010-06-03 07:33:45 51°29.492 2°55.271 10.6 339 12.8 102260 40
2010-06-03 07:33:50 51°29.511 2°55.269 9.9 285 12.8 102260 40
2010-06-03 07:33:55 51°29.53 2°55.269 10.3 340 12.9 102260 42
2010-06-03 07:34:00 51°29.548 2°55.268 10.4 285 12.9 102260 42
2010-06-03 07:34:05 51°29.567 2°55.267 11.1 341 12.9 102260 42
2010-06-03 07:34:10 51°29.586 2°55.266 10.4 285 12.9 102260 42
2010-06-03 07:34:15 51°29.605 2°55.265 10.7 341 12.9 102260 39
2010-06-03 07:34:20 51°29.623 2°55.263 10.6 286 12.9 102260 39
2010-06-03 07:34:25 51°29.642 2°55.263 10.7 342 12.9 102250 41
2010-06-03 07:34:30 51°29.661 2°55.262 10.7 282 12.9 102250 41
2010-06-03 07:34:35 51°29.68 2°55.261 10.8 341 12.8 102250 39
2010-06-03 07:34:40 51°29.699 2°55.26 10.6 279 12.8 102250 39
2010-06-03 07:34:45 51°29.717 2°55.259 9.9 339 12.9 102260 40
2010-06-03 07:34:50 51°29.736 2°55.258 11.1 283 12.9 102260 40
2010-06-03 07:34:55 51°29.755 2°55.257 10.5 341 12.9 102250 41
2010-06-03 07:35:00 51°29.774 2°55.256 10.5 281 12.9 102250 41
2010-06-03 07:35:05 51°29.792 2°55.255 11.2 340 12.8 102270 41
2010-06-03 07:35:10 51°29.811 2°55.253 11 282 12.8 102270 41
2010-06-03 07:35:15 51°29.83 2°55.252 10.4 340 12.9 102260 40
2010-06-03 07:35:20 51°29.849 2°55.251 11.1 281 12.9 102260 40
2010-06-03 07:35:25 51°29.868 2°55.25 10.4 339 12.9 102260 40
2010-06-03 07:35:30 51°29.886 2°55.249 10.5 278 12.8 102280 41
2010-06-03 07:35:35 51°29.905 2°55.248 9.5 340 12.8 102260 40
2010-06-03 07:35:40 51°29.924 2°55.247 10.7 279 12.8 102260 40
2010-06-03 07:35:45 51°29.942 2°55.246 10.3 340 12.8 102260 40
2010-06-03 07:35:50 51°29.961 2°55.245 9.6 279 12.8 102260 40
2010-06-03 07:35:55 51°29.98 2°55.245 11 339 12.8 102260 40
2010-06-03 07:36:00 51°29.999 2°55.243 10.6 284 12.8 102260 40
2010-06-03 07:36:05 51°30.018 2°55.243 11 341 12.8 102260 40
2010-06-03 07:36:10 51°30.036 2°55.241 11.6 279 12.8 102260 40
2010-06-03 07:36:15 51°30.055 2°55.241 11.8 340 12.8 102260 41
2010-06-03 07:36:20 51°30.074 2°55.24 10.2 284 12.8 102260 41
2010-06-03 07:36:25 51°30.093 2°55.24 11.5 341 12.8 102260 39
2010-06-03 07:36:30 51°30.112 2°55.239 11.2 282 12.8 102260 39